WA4FG Weather Reports


Display with metric or nautical units.
time (UTC)temp
F
wind
direction
speed
MPH
gust
MPH
rain 1hr
in
rain 24hr
in
rain mn
in
humidity
%
barometer
mb
20260505005243 70 125 0.0 0.0 0.00 0.00 0.00 52 1013.0
20260505004729 70 125 0.0 0.0 0.00 0.00 0.00 51 1012.9
20260505004227 71 125 0.0 0.0 0.00 0.00 0.00 51 1012.9
20260505003702 71 125 0.0 0.0 0.00 0.00 0.00 50 1012.9
20260505003136 72 125 0.0 0.0 0.00 0.00 0.00 50 1012.9
20260505002609 72 125 0.0 0.0 0.00 0.00 0.00 50 1012.8
20260505002050 73 125 0.0 0.0 0.00 0.00 0.00 52 1012.7
20260505001550 73 125 0.0 0.0 0.00 0.00 0.00 50 1012.6
20260505001047 73 125 0.0 0.0 0.00 0.00 0.00 49 1012.6
20260505000545 74 125 0.0 0.0 0.00 0.00 0.00 47 1012.7
20260505000027 74 125 0.0 0.0 0.00 0.00 0.00 45 1012.8
20260504234948 75 126 0.0 0.0 0.00 0.00 0.00 46 1012.7
20260504233934 75 125 0.0 1.0 0.00 0.00 0.00 44 1012.8
20260504233407 75 125 0.0 1.0 0.00 0.00 0.00 42 1012.8
20260504232839 75 133 0.0 0.0 0.00 0.00 0.00 46 1012.9
20260504232337 76 133 0.0 0.0 0.00 0.00 0.00 45 1013.0
20260504231257 76 133 0.0 0.0 0.00 0.00 0.00 44 1012.9
20260504230731 77 131 0.0 1.0 0.00 0.00 0.00 41 1012.9
20260504230206 77 131 0.0 1.0 0.00 0.00 0.00 41 1012.9
20260504225639 77 131 0.0 4.0 0.00 0.00 0.00 37 1012.9
20260504224633 77 160 0.0 5.0 0.00 0.00 0.00 37 1013.1
20260504224110 77 161 0.0 5.0 0.00 0.00 0.00 39 1013.1
20260504223608 77 150 0.0 4.0 0.00 0.00 0.00 37 1013.1
20260504223103 77 137 0.0 4.0 0.00 0.00 0.00 37 1013.1
20260504222603 77 150 0.0 4.0 0.00 0.00 0.00 36 1013.2
20260504221533 77 172 0.0 4.0 0.00 0.00 0.00 36 1013.2
20260504221032 78 160 0.0 4.0 0.00 0.00 0.00 36 1013.4
20260504220533 77 187 0.0 1.0 0.00 0.00 0.00 35 1013.3
20260504220006 78 187 0.0 0.0 0.00 0.00 0.00 40 1013.3
20260504215502 78 186 0.0 5.0 0.00 0.00 0.00 36 1013.3
20260504214959 78 186 0.0 5.0 0.00 0.00 0.00 34 1013.3
20260504214447 78 117 0.0 5.0 0.00 0.00 0.00 36 1013.4
20260504213945 78 142 0.0 5.0 0.00 0.00 0.00 38 1013.4
20260504213445 78 121 1.0 5.0 0.00 0.00 0.00 38 1013.4
20260504212912 78 121 1.0 8.0 0.00 0.00 0.00 39 1013.5
20260504212410 78 189 0.0 8.0 0.00 0.00 0.00 41 1013.5
20260504211856 78 232 0.0 5.0 0.00 0.00 0.00 38 1013.4
20260504211316 78 72 1.0 5.0 0.00 0.00 0.00 37 1013.5
20260504210812 78 148 0.0 5.0 0.00 0.00 0.00 39 1013.5
20260504210304 77 188 0.0 4.0 0.00 0.00 0.00 41 1013.5
20260504205800 77 188 0.0 4.0 0.00 0.00 0.00 42 1013.6
20260504204731 78 226 1.0 6.0 0.00 0.00 0.00 37 1013.7
20260504204227 78 115 1.0 8.0 0.00 0.00 0.00 37 1013.7
20260504203659 78 105 1.0 8.0 0.00 0.00 0.00 38 1013.7
20260504203144 78 202 0.0 7.0 0.00 0.00 0.00 41 1013.7
20260504202617 78 244 1.0 7.0 0.00 0.00 0.00 38 1013.7
20260504202113 78 190 1.0 7.0 0.00 0.00 0.00 37 1013.8
20260504201546 78 41 0.0 2.0 0.00 0.00 0.00 37 1013.8
20260504201043 78 207 0.0 1.0 0.00 0.00 0.00 39 1013.9
20260504200527 78 173 0.0 1.0 0.00 0.00 0.00 41 1014.0
20260504200029 78 108 0.0 4.0 0.00 0.00 0.00 38 1014.0
20260504195502 78 194 0.0 6.0 0.00 0.00 0.00 38 1014.2
20260504194932 78 164 0.0 1.0 0.00 0.00 0.00 41 1014.2
20260504194431 78 163 0.0 5.0 0.00 0.00 0.00 37 1014.2
20260504193929 78 181 0.0 5.0 0.00 0.00 0.00 38 1014.3
20260504192915 78 194 0.0 4.0 0.00 0.00 0.00 43 1014.5
20260504192353 78 173 0.0 1.0 0.00 0.00 0.00 41 1014.5
20260504191842 78 174 0.0 5.0 0.00 0.00 0.00 37 1014.5
20260504191341 78 186 1.0 6.0 0.00 0.00 0.00 37 1014.6
20260504190828 78 167 0.0 6.0 0.00 0.00 0.00 37 1014.7
20260504190328 78 216 1.0 6.0 0.00 0.00 0.00 39 1014.6
20260504185818 78 183 1.0 6.0 0.00 0.00 0.00 39 1014.8
20260504184805 78 133 0.0 5.0 0.00 0.00 0.00 38 1015.0
20260504184242 78 138 1.0 7.0 0.00 0.00 0.00 38 1015.1
20260504183747 78 163 1.0 7.0 0.00 0.00 0.00 43 1015.2
20260504183220 78 165 0.0 5.0 0.00 0.00 0.00 41 1015.2
20260504182655 78 165 0.0 5.0 0.00 0.00 0.00 40 1015.4
20260504181621 78 144 0.0 1.0 0.00 0.00 0.00 41 1015.6
20260504180619 78 98 0.0 2.0 0.00 0.00 0.00 45 1015.6
20260504175550 77 161 1.0 5.0 0.00 0.00 0.00 40 1015.8
20260504175051 77 173 1.0 5.0 0.00 0.00 0.00 40 1015.9
20260504174537 77 205 1.0 7.0 0.00 0.00 0.00 40 1016.1
20260504174037 77 174 1.0 7.0 0.00 0.00 0.00 43 1015.9
20260504173535 77 171 1.0 5.0 0.00 0.00 0.00 41 1015.9
20260504172501 77 129 0.0 4.0 0.00 0.00 0.00 48 1016.1
20260504172002 76 121 0.0 1.0 0.00 0.00 0.00 42 1016.2
20260504171455 76 61 0.0 1.0 0.00 0.00 0.00 45 1016.3
20260504170953 76 177 0.0 5.0 0.00 0.00 0.00 44 1016.4
20260504160227 74 161 1.0 7.0 0.00 0.00 0.00 42 1017.3
20260504150835 70 24 0.0 1.0 0.00 0.00 0.00 54 1017.4
20260504141139 61 190 0.0 2.0 0.00 0.00 0.00 71 1017.8
20260504140114 59 200 0.0 4.0 0.00 0.00 0.00 76 1018.0
20260504120130 46 201 0.0 0.0 0.00 0.00 0.00 97 1017.8
20260504110414 45 201 0.0 0.0 0.00 0.00 0.00 96 1017.6
20260504100129 46 201 0.0 0.0 0.00 0.00 0.00 96 1017.5
20260504081206 47 201 0.0 0.0 0.00 0.00 0.00 95 1017.3
20260504080655 47 201 0.0 0.0 0.00 0.00 0.00 95 1017.3
20260504080152 47 201 0.0 0.0 0.00 0.00 0.00 95 1017.4
20260504070410 48 201 0.0 0.0 0.00 0.00 0.00 94 1017.7
20260504060215 49 201 0.0 0.0 0.00 0.00 0.00 93 1018.3
20260504050429 50 201 0.0 0.0 0.00 0.00 0.00 91 1018.4
20260504045904 51 201 0.0 0.0 0.00 0.00 0.00 91 1018.4
20260504045334 51 201 0.0 0.0 0.00 0.00 0.00 91 1018.4
20260504044829 51 201 0.0 0.0 0.00 0.00 0.00 91 1018.4
20260504043824 51 201 0.0 0.0 0.00 0.00 0.00 90 1018.5
20260504043300 51 201 0.0 0.0 0.00 0.00 0.00 90 1018.6
20260504042803 51 201 0.0 0.0 0.00 0.00 0.00 90 1018.6
20260504042241 51 201 0.0 0.0 0.00 0.00 0.00 89 1018.6
20260504041738 51 201 0.0 0.0 0.00 0.00 0.00 89 1018.7
20260504041211 51 201 0.0 0.0 0.00 0.00 0.00 88 1018.6
20260504040707 52 201 0.0 0.0 0.00 0.00 0.00 88 1018.6
20260504040206 52 201 0.0 0.0 0.00 0.00 0.00 88 1018.6
20260504035706 52 201 0.0 0.0 0.00 0.00 0.00 88 1018.7
20260504035204 52 201 0.0 0.0 0.00 0.00 0.00 87 1018.8
20260504034657 52 201 0.0 0.0 0.00 0.00 0.00 87 1018.8
20260504034152 52 201 0.0 0.0 0.00 0.00 0.00 86 1018.8
20260504033628 53 201 0.0 0.0 0.00 0.00 0.00 86 1018.9
20260504033105 53 201 0.0 0.0 0.00 0.00 0.00 85 1018.9
20260504032606 53 201 0.0 0.0 0.00 0.00 0.00 85 1019.0
20260504032018 53 201 0.0 0.0 0.00 0.00 0.00 84 1019.0
20260504031453 53 201 0.0 0.0 0.00 0.00 0.00 84 1018.9
20260504030422 54 201 0.0 0.0 0.00 0.00 0.00 83 1018.9
20260504025856 54 201 0.0 0.0 0.00 0.00 0.00 82 1018.7
20260504025347 54 201 0.0 0.0 0.00 0.00 0.00 82 1018.7
20260504024316 55 201 0.0 0.0 0.00 0.00 0.00 81 1018.6
20260504023750 55 201 0.0 0.0 0.00 0.00 0.00 80 1018.6
20260504023224 55 201 0.0 0.0 0.00 0.00 0.00 79 1018.6
20260504022709 55 201 0.0 0.0 0.00 0.00 0.00 79 1018.5
20260504022210 56 201 0.0 0.0 0.00 0.00 0.00 78 1018.4
20260504021141 56 201 0.0 0.0 0.00 0.00 0.00 76 1018.3
20260504020630 57 201 0.0 0.0 0.00 0.00 0.00 76 1018.2
20260504020107 57 201 0.0 0.0 0.00 0.00 0.00 75 1018.3
20260504015600 57 201 0.0 0.0 0.00 0.00 0.00 74 1018.3
20260504015049 58 201 0.0 0.0 0.00 0.00 0.00 74 1018.2
20260504014546 58 201 0.0 0.0 0.00 0.00 0.00 73 1018.2
20260504014043 58 201 0.0 0.0 0.00 0.00 0.00 72 1018.3
20260504013541 59 201 0.0 0.0 0.00 0.00 0.00 71 1018.1
20260504013028 59 201 0.0 0.0 0.00 0.00 0.00 69 1017.9
20260504012529 60 201 0.0 0.0 0.00 0.00 0.00 69 1017.8
20260504012003 60 201 0.0 0.0 0.00 0.00 0.00 67 1017.8
20260504011424 60 201 0.0 0.0 0.00 0.00 0.00 66 1017.9
20260504010858 61 201 0.0 0.0 0.00 0.00 0.00 64 1017.9
20260504010353 61 201 0.0 0.0 0.00 0.00 0.00 64 1017.8
20260504005850 61 201 0.0 0.0 0.00 0.00 0.00 62 1017.7